{"data":{"norad_id":48479,"epoch":"2026-05-25T03:34:07.446720Z","epoch_age_seconds":65360,"freshness":"FRESH","line1":"1 48479U 21040BD  26145.14869730  .00018029  00000+0  59103-3 0  9995","line2":"2 48479  53.1602 195.7745 0000988  79.1476 280.9636 15.31715918278202","mean_motion":15.31715918,"eccentricity":9.88e-5,"inclination_deg":53.1602,"raan_deg":195.7745,"arg_perigee_deg":79.1476,"mean_anomaly_deg":280.9636,"bstar":0.00059103,"rev_number":27820,"period_min":94.012210950987,"perigee_km":470.01588054785,"apogee_km":471.36920926592,"semimajor_km":6848.8295449069,"source":"CELESTRAK","updated_at":"2026-05-25T13:38:16.722573Z"}}